• In Austria
  • List of Countries
  • For 7 days
  • Water Temperature
  • Satellite Maps
  • Weather Map
  • News
  • Weather Widgets
  • user-avatar
    Login

    Hourly Weather Skuratovo

    Today, 23 September, Sunday

    Time Temperature Precipitation Wind Pressure Humidity
    00:00 +9°C° 0.2 mm 3 mps 736 mmHg 93%
    01:00 +9°C° 0.2 mm 3 mps 736 mmHg 93%
    02:00 +9°C° 0 mm 3 mps 736 mmHg 94%
    03:00 +8°C° 0 mm 3 mps 735 mmHg 94%
    04:00 +8°C° 0 mm 3 mps 735 mmHg 94%
    05:00 +8°C° 0 mm 3 mps 735 mmHg 95%
    06:00 +8°C° 0 mm 3 mps 735 mmHg 93%
    07:00 +8°C° 0 mm 3 mps 735 mmHg 91%
    08:00 +7°C° 0 mm 4 mps 735 mmHg 89%
    09:00 +8°C° 0 mm 4 mps 734 mmHg 85%
    10:00 +10°C° 0 mm 4 mps 734 mmHg 80%
    11:00 +10°C° 0 mm 5 mps 734 mmHg 75%
    12:00 +10°C° 0.2 mm 5 mps 734 mmHg 73%
    13:00 +12°C° 0.2 mm 5 mps 734 mmHg 70%
    14:00 +12°C° 0.2 mm 5 mps 734 mmHg 68%
    15:00 +11°C° 0.2 mm 4 mps 734 mmHg 72%
    16:00 +11°C° 0.2 mm 4 mps 734 mmHg 75%
    17:00 +10°C° 0.2 mm 3 mps 734 mmHg 79%
    18:00 +9°C° 0 mm 3 mps 734 mmHg 82%
    19:00 +8°C° 0 mm 3 mps 734 mmHg 84%
    20:00 +8°C° 0 mm 3 mps 734 mmHg 87%
    21:00 +7°C° 0.1 mm 3 mps 734 mmHg 88%
    22:00 +7°C° 0.1 mm 3 mps 734 mmHg 90%
    23:00 +7°C° 0.1 mm 3 mps 734 mmHg 91%

    Tomorrow, 24 September, Monday

    Time Temperature Precipitation Wind Pressure Humidity
    00:00 +7°C° 0 mm 3 mps 734 mmHg 92%
    01:00 +5°C° 0 mm 3 mps 734 mmHg 94%
    02:00 +5°C° 0 mm 3 mps 734 mmHg 95%
    03:00 +6°C° 0 mm 2 mps 733 mmHg 96%
    04:00 +6°C° 0 mm 2 mps 733 mmHg 96%
    05:00 +6°C° 0 mm 2 mps 733 mmHg 97%
    06:00 +6°C° 0 mm 2 mps 733 mmHg 95%
    07:00 +7°C° 0 mm 2 mps 733 mmHg 93%
    08:00 +7°C° 0 mm 2 mps 733 mmHg 91%
    09:00 +8°C° 0.1 mm 2 mps 733 mmHg 87%
    10:00 +10°C° 0.1 mm 1 mps 732 mmHg 83%
    11:00 +11°C° 0.1 mm 1 mps 732 mmHg 79%
    12:00 +11°C° 0.6 mm 1 mps 732 mmHg 81%
    13:00 +11°C° 0.6 mm 1 mps 731 mmHg 84%
    14:00 +11°C° 0.6 mm 1 mps 731 mmHg 86%
    15:00 +9°C° 0.7 mm 2 mps 731 mmHg 88%
    16:00 +9°C° 0.7 mm 2 mps 730 mmHg 90%
    17:00 +8°C° 0.7 mm 2 mps 730 mmHg 92%
    18:00 +8°C° 0.6 mm 3 mps 730 mmHg 92%
    19:00 +7°C° 0.6 mm 4 mps 729 mmHg 92%
    20:00 +6°C° 0.6 mm 4 mps 729 mmHg 93%
    21:00 +6°C° 0.4 mm 5 mps 729 mmHg 92%
    22:00 +6°C° 0.4 mm 5 mps 729 mmHg 90%
    23:00 +5°C° 0.4 mm 6 mps 729 mmHg 89%

    Day after tomorrow, 25 September, Tuesday

    Time Temperature Precipitation Wind Pressure Humidity
    00:00 +4°C° 0.2 mm 6 mps 729 mmHg 88%
    01:00 +4°C° 0.2 mm 6 mps 730 mmHg 87%
    02:00 +3°C° 0.2 mm 6 mps 730 mmHg 86%
    03:00 +3°C° 0.1 mm 6 mps 730 mmHg 85%
    04:00 +3°C° 0.1 mm 6 mps 731 mmHg 85%
    05:00 +3°C° 0.1 mm 6 mps 731 mmHg 85%
    06:00 +3°C° 0 mm 6 mps 732 mmHg 83%
    07:00 +3°C° 0 mm 6 mps 732 mmHg 81%
    08:00 +3°C° 0 mm 6 mps 733 mmHg 79%
    09:00 +4°C° 0 mm 6 mps 733 mmHg 76%
    10:00 +5°C° 0 mm 6 mps 734 mmHg 72%
    11:00 +5°C° 0 mm 6 mps 735 mmHg 69%
    12:00 +7°C° 0 mm 6 mps 735 mmHg 65%
    13:00 +7°C° 0 mm 6 mps 736 mmHg 61%
    14:00 +8°C° 0 mm 6 mps 736 mmHg 58%
    15:00 +7°C° 0.1 mm 6 mps 737 mmHg 61%
    16:00 +5°C° 0.1 mm 6 mps 738 mmHg 65%
    17:00 +5°C° 0.1 mm 6 mps 738 mmHg 68%
    18:00 +5°C° 0 mm 5 mps 739 mmHg 67%
    19:00 +3°C° 0 mm 5 mps 740 mmHg 65%
    20:00 +2°C° 0 mm 5 mps 741 mmHg 64%
    21:00 +3°C° 0 mm 4 mps 741 mmHg 64%
    22:00 +1°C° 0 mm 4 mps 742 mmHg 65%
    23:00 +1°C° 0 mm 4 mps 742 mmHg 66%

    26 September, Wednesday

    Time Temperature Precipitation Wind Pressure Humidity
    00:00 +1°C° 0 mm 4 mps 743 mmHg 69%
    01:00 +1°C° 0 mm 3 mps 743 mmHg 73%
    02:00 +1°C° 0 mm 3 mps 744 mmHg 76%
    03:00 +1°C° 0 mm 3 mps 744 mmHg 80%
    04:00 +1°C° 0 mm 3 mps 744 mmHg 84%
    05:00 +2°C° 0 mm 3 mps 745 mmHg 88%
    06:00 +2°C° 0 mm 3 mps 745 mmHg 84%
    07:00 +3°C° 0 mm 3 mps 745 mmHg 80%
    08:00 +4°C° 0 mm 4 mps 745 mmHg 75%
    09:00 +6°C° 0 mm 4 mps 745 mmHg 68%
    10:00 +7°C° 0 mm 4 mps 745 mmHg 60%
    11:00 +10°C° 0 mm 4 mps 745 mmHg 53%
    12:00 +9°C° 0 mm 5 mps 744 mmHg 53%
    13:00 +9°C° 0 mm 5 mps 744 mmHg 53%
    14:00 +10°C° 0 mm 5 mps 743 mmHg 53%
    15:00 +9°C° 0.1 mm 5 mps 742 mmHg 61%
    16:00 +8°C° 0.1 mm 5 mps 742 mmHg 70%
    17:00 +7°C° 0.1 mm 5 mps 741 mmHg 79%
    18:00 +7°C° 0.8 mm 5 mps 740 mmHg 83%
    19:00 +7°C° 0.8 mm 6 mps 739 mmHg 86%
    20:00 +5°C° 0.8 mm 7 mps 738 mmHg 90%
    21:00 +5°C° 1.7 mm 7 mps 737 mmHg 90%
    22:00 +5°C° 1.7 mm 7 mps 736 mmHg 91%
    23:00 +5°C° 1.7 mm 7 mps 735 mmHg 91%

    27 September, Thursday

    Time Temperature Precipitation Wind Pressure Humidity
    00:00 +5°C° 1.7 mm 7 mps 734 mmHg 91%
    01:00 +6°C° 1.7 mm 7 mps 733 mmHg 91%
    02:00 +7°C° 1.7 mm 6 mps 732 mmHg 91%
    03:00 +6°C° 2 mm 7 mps 731 mmHg 92%
    04:00 +6°C° 2 mm 7 mps 729 mmHg 92%
    05:00 +6°C° 2 mm 7 mps 728 mmHg 92%
    06:00 +8°C° 0.9 mm 7 mps 727 mmHg 91%
    07:00 +9°C° 0.9 mm 7 mps 727 mmHg 91%
    08:00 +10°C° 0.9 mm 7 mps 726 mmHg 90%
    09:00 +10°C° 0.8 mm 6 mps 726 mmHg 88%
    10:00 +10°C° 0.8 mm 6 mps 727 mmHg 87%
    11:00 +10°C° 0.8 mm 6 mps 727 mmHg 86%
    12:00 +10°C° 0.6 mm 6 mps 727 mmHg 82%
    13:00 +11°C° 0.6 mm 7 mps 727 mmHg 79%
    14:00 +11°C° 0.6 mm 8 mps 728 mmHg 75%
    15:00 +9°C° 0.1 mm 8 mps 728 mmHg 75%
    16:00 +7°C° 0.1 mm 8 mps 729 mmHg 74%
    17:00 +6°C° 0.1 mm 8 mps 730 mmHg 73%
    18:00 +5°C° 0 mm 7 mps 731 mmHg 74%
    19:00 +4°C° 0 mm 6 mps 732 mmHg 74%
    20:00 +5°C° 0 mm 5 mps 733 mmHg 75%
    21:00 +5°C° 0 mm 5 mps 734 mmHg 75%
    22:00 +3°C° 0 mm 5 mps 734 mmHg 76%
    23:00 +3°C° 0 mm 5 mps 735 mmHg 77%

    28 September, Friday

    Time Temperature Precipitation Wind Pressure Humidity
    00:00 +4°C° 0 mm 4 mps 735 mmHg 78%
    01:00 +3°C° 0 mm 4 mps 736 mmHg 79%
    02:00 +3°C° 0 mm 4 mps 736 mmHg 80%
    03:00 +3°C° 0 mm 3 mps 736 mmHg 81%
    04:00 +3°C° 0 mm 3 mps 736 mmHg 81%
    05:00 +3°C° 0 mm 3 mps 737 mmHg 82%
    06:00 +4°C° 0 mm 2 mps 737 mmHg 82%
    07:00 +5°C° 0 mm 2 mps 737 mmHg 82%
    08:00 +5°C° 0 mm 2 mps 737 mmHg 82%
    09:00 +6°C° 0.1 mm 2 mps 737 mmHg 79%
    10:00 +7°C° 0.1 mm 2 mps 737 mmHg 75%
    11:00 +8°C° 0.1 mm 2 mps 737 mmHg 72%
    12:00 +9°C° 0.1 mm 2 mps 738 mmHg 69%
    13:00 +9°C° 0.1 mm 2 mps 738 mmHg 66%
    14:00 +10°C° 0.1 mm 3 mps 738 mmHg 62%
    15:00 +9°C° 0 mm 2 mps 739 mmHg 67%
    16:00 +8°C° 0 mm 2 mps 739 mmHg 72%
    17:00 +8°C° 0 mm 1 mps 739 mmHg 76%
    18:00 +6°C° 0 mm 2 mps 740 mmHg 80%
    19:00 +5°C° 0 mm 2 mps 740 mmHg 85%
    20:00 +4°C° 0 mm 2 mps 741 mmHg 89%
    21:00 +4°C° 0 mm 2 mps 741 mmHg 90%
    22:00 +4°C° 0 mm 2 mps 741 mmHg 91%
    23:00 +4°C° 0 mm 2 mps 742 mmHg 92%
    Show more